STARLINK-11332, 61539

Orbit data source: Space-Track

STARLINK-11332, 61539 is a payload satellite owned by SpaceX/Seattle (US) in LEO that was launched on Tue, 15 Oct 2024 UTC via an FALCON 9 launch vehicle from the Air Force Western Test Range (AFWTR). Payload-class satellites include a variety of spacecraft equipped with specific instruments for various scientific and technological missions. These include communications satellites like Starlink; space stations such as the ISS; scientific satellites like the Hubble; Earth observation satellites from companies like Planet Labs, Umbra, and HawkEye 360; GPS; miniature CubeSats for education and research; and military/defense satellites.

Loading next visibility...
Identifier
61539, 2024-184H
Orbit
LEO
Country
Flag of USUS
Related business
Manufacturer
SpaceX/Seattle
Mission
Operational Commercial Communications
Bus & Motor
STARLINK V2MD, Unknown motor
Mass
960 kg wet, ~910 kg dry
Launch date (UTC)
2024-10-15 (2 years ago)
Launch vehicle
FALCON 9
Launch site
Air Force Western Test Range (AFWTR)
Object type
Payload
Rocket body
Debris
Shape & HBR
Box + 2 Pan, 18.1 m
Radar Cross Section
36.964 m², Large (>1 m²)

Expand to show TLE details & history
Last TLE update: 18 hours ago

TLE from 18 hours ago
0 STARLINK-11332
1 61539U 24184H   26171.14701719 -.00000308  00000-0  23122-5 0  9997
2 61539  53.1596  90.8959 0000569  97.1060 263.0022 15.69707802 96519
Epoch: 2026-06-20T03:31Z
TLE epoch observation values (Epoch: 2026-06-20T03:31:42.285Z)
Latitude
-0.00006°
Longitude
129.60385°
Altitude
360.695 km
Speed
7.694 km/s
True Right ascension
06h 03m 35s
True Declination
0° 00' 00"
Sunlit
Object was in daylight at epoch
Visualization orbit readout
Latitude
Unknown
Longitude
Unknown
Altitude
Unknown
Speed
Unknown
Apparent Right ascension
Unknown
Apparent Declination
Unknown
Sunlit
N/A
Visualization observer readout
Local Sidereal Time
08:33:32
Azimuth
Unknown
Elevation
Unknown
Doppler factor
Unknown
Orbital elements
Apogee altitude
360.377 km
Perigee altitude
359.61 km
Semi-major axis
6,738.131 km
Eccentricity
0.00006
Inclination
53.1596°
RAAN
90.8959°
Arg. of periapsis
97.106°
True anomaly
262.99573°
Mean anomaly
263.0022°
Eccentric anomaly
262.99896°
Mean motion
3.92405 °/min
Orbital period
91.74 mins
BSTAR
0.0000023122
Loading maneuver chart data...
Computing Atmospheric mass density...
Loading historical data...
Loading historical data...
Loading historical data...
Loading historical data...
Loading historical data...
Loading historical data...
Loading historical data...

Documentation

Showing up to 5 results
|